User: anonymous   Login
Location: Unspecified
(0.0000°N, 0.0000°E)
Time: 04:42:05
(UTC+00:00)
Language:

Tiros N - Orbit

View from above orbital plane
View from above orbital plane
View from above satellite
View from above satellite

Ground track
Ground track

The orbit data is extracted from the following two-line orbital elements,

1 11060U 78096A   23275.16830034  .00000311  00000-0  17057-3 0  9990
2 11060  98.5722 319.7658 0009856 219.0382 141.0083 14.18638054538727
Epoch (UTC): 02 October 2023 04:02:21
Eccentricity: 0.0009856
inclination: 98.5722°
perigee height: 823 km
apogee height: 837 km
right ascension of ascending node: 319.7658°
argument of perigee: 219.0382°
revolutions per day: 14.18638054
mean anomaly at epoch: 141.0083°
orbit number at epoch: 53872

The dashed part of the orbit path shows where the satellite is in the earth's shadow,  

DLR